map of HAF home
HAF - Airport
Location
City:  Half Moon Bay, California, United States
ICAO:KHAF
IATA:HAF
FAA LID:HAF

Details
Type:Airport (Airfield)
Use:Public/Civil
Latitude:3730'48"N (37.513444)
Longitude:12230'04"W (-122.501166)
Datum:WGS 1984
Elevation:66 ft (20 m)
Variation:13.41E (WMM2015v2 magnetic declination)
-0.08 annual change
Runways:1
Longest:5000 × 150 ft (1524 × 45.5 m), paved

Time
Time Zone:UTC-8 (DST-7)
Local Time:

Weather
METAR:KHAF 041420Z AUTO 30015G21KT 9SM FEW023 SCT033 BKN039 10/06 A2959 RMK AO2

Related Locations
Nearby:
Farthest:FTU: 11375 mi / 18306 km
Tolagnaro [Maurillac Airport (Fort Dauphin Airport)], MG

Find:

   beyond  
but within

Other Information
Maps:
NOTAMs:
Links:
Sources:

  
  • flag of United States
  • flag of California
  

Sectional Chart

Flight Planning
at skyvector.com

Satellite Image

Google Maps Satellite view

 

Copyright © 2004-2019 Karl L. Swartz. All rights reserved.
The Great Circle Mapper name and logo are trademarks of the Great Circle Mapper.
All other trademarks mentioned herein belong to their respective owners.
Please see credits for attibutions and further copyright information.

  Follow gcmap on Facebook Follow gcmap on Twitter GCmap on LinkedIn

hCard Microformat

Geo Microformat